Powrót do katalogu

ICEYE-X60

AktywnyNaukaSSO
NORAD 66753·PAYLOAD·🇬🇷 Greece

Wystrzelony Nov 28, 2025 z Vandenberg Space Force Base

Loading…

Następne Przeloty (najbliższe 24 godziny)

TLE

ŚwieżeSource: Space-Track

Epoka: Sep 13, 2026, 22:32 UTC

1 66753U 25276CR  26256.93919523  .00004172  00000-0  26139-3 0  9999
2 66753  97.4123 326.8953 0003890  89.3235 270.8440 15.09876132 43768

Śledź ICEYE-X60 w czasie rzeczywistym z AllMySat

Download on the App Store